Date String (YYYY-MM-DD hh:mm:ss) UTC,Instrument flags,Ambient pressure (hPa),Sample flow (lpm),Bypass flow (lpm),Sample temperature (°C),Ambient temperature (°C),ASC tube jacket temperature (°C),LED temperature (°C),Box temperature (°C),Sample RH (%),Span deviation,Mass concentration (μg/m³),Mass concentration (μg/m³),Mass concentration (μg/m³)
DateTimeUTC,F1_M11,P_M11,Q1_M11,Q2_M11,T1_M11,T2_M11,T3_M11,T4_M11,T5_M11,U1_M11,ZSPAN_M11,X0_M11,X2_M11,X1_M11
2022-01-22 12:00:00,,0831.6,4.98,0.00,22.4,23.0,00.0,31.3,24.3,11.9,0000.0,0004.05,0003.46,0003.36
2022-01-22 12:01:00,,0831.6,5.00,0.00,22.4,22.8,00.0,31.3,24.3,11.8,0000.0,0003.98,0003.44,0003.36
2022-01-22 12:02:00,,0831.6,5.01,0.00,22.4,22.5,00.0,31.3,24.2,11.8,0000.0,0004.00,0003.44,0003.36
2022-01-22 12:03:00,,0831.6,4.99,0.00,22.4,22.3,00.0,31.3,24.1,11.8,0000.0,0004.00,0003.43,0003.35
2022-01-22 12:04:00,,0831.6,4.99,0.00,22.3,22.1,00.0,31.3,24.1,11.7,0000.0,0004.00,0003.43,0003.34
2022-01-22 12:05:00,,0831.6,5.01,0.00,22.3,21.9,00.0,31.3,24.0,11.7,0000.0,0003.98,0003.41,0003.33
2022-01-22 12:06:00,,0831.6,5.00,0.00,22.3,21.8,00.0,31.3,23.9,11.7,0000.0,0003.78,0003.40,0003.31
2022-01-22 12:07:00,,0831.6,4.98,0.00,22.2,21.7,00.0,31.3,23.9,11.7,0000.0,0003.76,0003.39,0003.30
2022-01-22 12:08:00,,0831.6,5.01,0.00,22.2,21.6,00.0,31.3,23.9,11.7,0000.0,0003.63,0003.36,0003.28
2022-01-22 12:09:00,,0831.6,4.99,0.00,22.2,21.5,00.0,31.3,23.8,11.7,0000.0,0003.53,0003.33,0003.26
2022-01-22 12:10:00,,0831.6,5.01,0.00,22.1,21.4,00.0,31.2,23.8,11.7,0000.0,0003.42,0003.30,0003.24
2022-01-22 12:11:00,,0831.6,4.99,0.00,22.1,21.4,00.0,31.2,23.7,11.6,0000.0,0003.36,0003.27,0003.21
2022-01-22 12:12:00,,0831.6,5.01,0.00,22.1,21.3,00.0,31.2,23.7,11.6,0000.0,0003.33,0003.25,0003.19
2022-01-22 12:13:00,,0831.6,5.00,0.00,22.1,21.5,00.0,31.2,23.7,11.6,0000.0,0003.30,0003.23,0003.16
2022-01-22 12:14:00,,0831.6,5.01,0.00,22.2,22.1,00.0,31.2,23.9,11.5,0000.0,0003.27,0003.21,0003.14
2022-01-22 12:15:00,,0831.5,5.00,0.00,22.3,22.9,00.0,31.3,24.2,11.4,0000.0,0003.26,0003.19,0003.12
2022-01-22 12:16:00,,0831.5,5.01,0.00,22.4,23.0,00.0,31.3,24.3,11.3,0000.0,0003.23,0003.18,0003.11
2022-01-22 12:17:00,,0831.4,5.00,0.00,22.4,22.7,00.0,31.3,24.3,11.3,0000.0,0003.19,0003.17,0003.09
2022-01-22 12:18:00,,0831.4,4.98,0.00,22.4,22.5,00.0,31.3,24.2,11.3,0000.0,0003.17,0003.15,0003.07
2022-01-22 12:19:00,,0831.4,5.00,0.00,22.4,22.3,00.0,31.3,24.1,11.3,0000.0,0003.19,0003.14,0003.05
2022-01-22 12:20:00,,0831.4,5.01,0.00,22.3,22.1,00.0,31.3,24.0,11.3,0000.0,0003.22,0003.15,0003.05
2022-01-22 12:21:00,,0831.4,4.99,0.00,22.3,21.9,00.0,31.3,24.0,11.3,0000.0,0003.28,0003.16,0003.04
2022-01-22 12:22:00,,0831.4,5.01,0.00,22.3,21.8,00.0,31.3,23.9,11.4,0000.0,0003.28,0003.15,0003.02
2022-01-22 12:23:00,,0831.4,4.99,0.00,22.2,21.7,00.0,31.3,23.9,11.4,0000.0,0003.28,0003.14,0003.01
2022-01-22 12:24:00,,0831.4,5.00,0.00,22.2,21.6,00.0,31.3,23.8,11.4,0000.0,0003.22,0003.13,0003.00
2022-01-22 12:25:00,,0831.3,4.99,0.00,22.1,21.5,00.0,31.2,23.8,11.4,0000.0,0003.25,0003.13,0003.00
2022-01-22 12:26:00,,0831.4,5.00,0.00,22.1,21.4,00.0,31.2,23.7,11.4,0000.0,0003.24,0003.13,0002.99
2022-01-22 12:27:00,,0831.4,5.00,0.00,22.1,21.4,00.0,31.2,23.7,11.4,0000.0,0003.23,0003.13,0002.98
2022-01-22 12:28:00,,0831.4,5.01,0.00,22.0,21.3,00.0,31.2,23.7,11.4,0000.0,0003.18,0003.12,0002.98
2022-01-22 12:29:00,,0831.4,4.99,0.00,22.0,21.3,00.0,31.2,23.6,11.4,0000.0,0003.17,0003.11,0002.97
2022-01-22 12:30:00,,0831.4,5.01,0.00,22.0,21.7,00.0,31.2,23.8,11.3,0000.0,0003.61,0003.12,0002.97
2022-01-22 12:31:00,,0831.4,5.00,0.00,22.2,22.4,00.0,31.2,24.0,11.2,0000.0,0003.78,0003.09,0002.96
2022-01-22 12:32:00,,0831.4,4.99,0.00,22.3,23.0,00.0,31.2,24.2,11.1,0000.0,0003.75,0003.07,0002.96
2022-01-22 12:33:00,,0831.4,5.00,0.00,22.4,22.9,00.0,31.3,24.3,11.1,0000.0,0003.72,0003.05,0002.95
2022-01-22 12:34:00,,0831.4,4.99,0.00,22.4,22.6,00.0,31.3,24.2,11.1,0000.0,0003.69,0003.04,0002.93
2022-01-22 12:35:00,,0831.4,5.00,0.00,22.3,22.4,00.0,31.3,24.1,11.0,0000.0,0003.70,0003.04,0002.93
2022-01-22 12:36:00,,0831.4,5.01,0.00,22.3,22.2,00.0,31.3,24.1,11.0,0000.0,0003.76,0003.03,0002.94
2022-01-22 12:37:00,,0831.4,4.99,0.00,22.3,22.0,00.0,31.3,24.0,11.0,0000.0,0003.82,0003.03,0002.92
2022-01-22 12:38:00,,0831.4,5.01,0.00,22.2,21.8,00.0,31.3,23.9,11.1,0000.0,0003.78,0002.99,0002.89
2022-01-22 12:39:00,,0831.3,4.98,0.00,22.2,21.7,00.0,31.3,23.9,11.1,0000.0,0003.78,0002.97,0002.87
2022-01-22 12:40:00,,0831.2,5.01,0.00,22.2,21.6,00.0,31.2,23.8,11.1,0000.0,0003.81,0002.98,0002.85
2022-01-22 12:41:00,,0831.2,4.99,0.00,22.1,21.5,00.0,31.2,23.8,11.1,0000.0,0003.46,0002.96,0002.82
2022-01-22 12:42:00,,0831.2,5.02,0.00,22.1,21.4,00.0,31.2,23.7,11.2,0000.0,0003.08,0002.94,0002.81
2022-01-22 12:43:00,,0831.2,4.99,0.00,22.1,21.3,00.0,31.2,23.7,11.2,0000.0,0003.00,0002.91,0002.80
2022-01-22 12:44:00,,0831.2,5.01,0.00,22.0,21.3,00.0,31.2,23.6,11.2,0000.0,0002.99,0002.90,0002.79
2022-01-22 12:45:00,,0831.1,5.00,0.00,22.0,21.2,00.0,31.1,23.6,11.2,0000.0,0003.04,0002.91,0002.79
2022-01-22 12:46:00,,0831.2,5.00,0.00,22.0,21.6,00.0,31.2,23.7,11.2,0000.0,0003.00,0002.90,0002.79
2022-01-22 12:47:00,,0831.2,5.00,0.00,22.2,22.4,00.0,31.2,24.0,11.1,0000.0,0002.91,0002.88,0002.76
2022-01-22 12:48:00,,0831.2,5.01,0.00,22.3,23.0,00.0,31.2,24.2,11.0,0000.0,0002.80,0002.86,0002.76
2022-01-22 12:49:00,,0831.2,5.00,0.00,22.4,22.8,00.0,31.3,24.3,11.0,0000.0,0002.79,0002.86,0002.76
2022-01-22 12:50:00,,0831.2,5.00,0.00,22.3,22.6,00.0,31.3,24.2,11.0,0000.0,0002.79,0002.86,0002.77
2022-01-22 12:51:00,,0831.2,4.99,0.00,22.3,22.3,00.0,31.3,24.1,10.9,0000.0,0002.79,0002.86,0002.78
2022-01-22 12:52:00,,0831.1,5.01,0.00,22.3,22.1,00.0,31.2,24.0,11.0,0000.0,0002.81,0002.84,0002.77
2022-01-22 12:53:00,,0831.2,4.99,0.00,22.2,21.9,00.0,31.2,23.9,10.9,0000.0,0002.83,0002.85,0002.78
2022-01-22 12:54:00,,0831.2,5.02,0.00,22.2,21.7,00.0,31.2,23.9,10.9,0000.0,0002.86,0002.87,0002.78
2022-01-22 12:55:00,,0831.2,5.00,0.00,22.2,21.6,00.0,31.2,23.8,10.9,0000.0,0002.91,0002.90,0002.80
2022-01-22 12:56:00,,0831.2,5.00,0.00,22.1,21.5,00.0,31.2,23.8,11.0,0000.0,0002.87,0002.88,0002.79
2022-01-22 12:57:00,,0831.3,5.00,0.00,22.1,21.4,00.0,31.2,23.7,10.9,0000.0,0002.85,0002.88,0002.79
2022-01-22 12:58:00,,0831.2,4.99,0.00,22.1,21.4,00.0,31.2,23.7,11.0,0000.0,0002.86,0002.88,0002.79
2022-01-22 12:59:00,,0831.2,5.01,0.00,22.0,21.3,00.0,31.2,23.6,11.0,0000.0,0002.91,0002.89,0002.79
